www.pogodaiklimat.ru

Погода и климат >> Архив погоды >> Россия >> Нижегородская область >> Арзамас


ПОГОДА в Арзамасе

АРХИВ ПОГОДЫ в Арзамасе

Время (UTC), дата Ветер
(напр.,м/с)
 
Видим.   Явления Облачность Т
(С)
Тd
(С)
f
(%)
Тe
(С)
Тes
(С)
Комфортность P
(гПа)
Po
(гПа)
Тmin
(С)
Tmax
(С)
R
(мм)
R24
(мм)
S
(см)
06 20.06 СЗ 3-4
{6}
20 км 3/0
[Ac trans]
+17.8 +10.3 61 +18 +25 по сезону 1003.3 988.9
09 20.06 З 5-9
{9}
20 км 6/6 300 м
[Sc]
+20.5 +6.4 40 +21 +25 комфорт 1003.0 988.7
12 20.06 З 4-8
{10}
20 км 5/5 300 м
[Sc]
+21.0 +5.3 36 +22 +26 комфорт 1002.7 988.4
15 20.06 СЗ 3-6
{9}
20 км 3/3 300 м
[Sc]
+21.1 +5.5 36 +22 +23 комфорт 1002.6 988.3 +21.1
18 20.06 штиль 0
{7}
20 км ясно +13.8 +8.6 71 +14 +14 прохладно 1003.0 988.4
21 20.06 Ю 2-3
{3}
4000 м ясно +13.1 +7.4 68 +12 +12 прохладно 1002.2 987.5
00 21.06 Ю 3-4
{5}
4000 м 10/0
[As op]
+12.8 +7.7 71 +12 +12 по сезону 999.9 985.3
03 21.06 ЮЗ 5-8
{8}
20 км 10/0
[As op]
+15.0 +8.9 67 +14 +14 по сезону 997.5 983.0 +12.8
06 21.06 ЮЗ 5-7
{9}
20 км {дождь} 10/0
[As op]
+14.4 +12.4 88 +13 +14 прохладно 996.8 982.4
09 21.06 ЮЗ 8-11
{13}
20 км 8/8 600 м
[Cu med, cong]
+20.2 +12.0 59 +21 +22 комфорт 995.9 981.8
12 21.06 З 9-12
{14}
20 км 4/4 600 м
[Cu med, cong]
+21.4 +8.0 42 +22 +23 комфорт 996.4 982.3
15 21.06 З 4-8
{14}
20 км 3/3 600 м
[Sc diur, vesp]
+19.6 +5.6 40 +20 +21 тепло 997.8 983.5 +21.8 0.6
18 21.06 СЗ 2-4
{10}
20 км 3/3 600 м
[Sc]
+14.8 +6.4 57 +15 +15 прохладно 999.8 985.3
21 21.06 Ю 2-3
{4}
4000 м ясно +9.1 +6.1 81 +7 +7 очень
холодно
1000.3 985.5
00 22.06 Ю 2-3
{4}
4000 м ясно +7.7 +6.2 90 +6 +6 холодно 1000.3 985.4
03 22.06 ЮЗ 4-6
{7}
20 км ясно +10.6 +6.8 77 +8 +10 холодно 1000.2 985.5 +6.2
06 22.06 ЮЗ 5-7
{8}
20 км 8/3 300 м
[Sc As trans]
+13.7 +7.1 64 +12 +14 холодно 1000.5 985.9
09 22.06 ЮЗ 9-15
{15}
20 км слабый дождь {ливн. осадки} 9/0
[As op]
+13.8 +7.6 66 +11 +12 очень
холодно
1001.4 986.8
12 22.06 З 5-8
{15}
20 км в посл. час ливневой дождь 9/9 300 м
[Sc]
+14.0 +7.7 66 +12 +13 очень
холодно
1002.6 988.0
15 22.06 З 5-8
{10}
20 км 9/9 300 м
[Sc]
+15.0 +8.2 64 +14 +14 холодно 1003.3 988.7 +15.0 2
18 22.06 Ю 1-3
{10}
20 км {ливн. осадки, дождь} 8/8 300 м
[Sc]
+11.6 +9.4 86 +11 +11 холодно 1005.1 990.3
21 22.06 Ю 1-2
{3}
4000 м 3/3 300 м
[Sc]
+9.4 +6.8 84 +9 +9 холодно 1005.5 990.6
00 23.06 Ю 1-2
{3}
4000 м 10/10 300 м
[Sc]
+9.5 +7.0 84 +9 +9 прохладно 1005.7 990.8
03 23.06 ЮЗ 2-4
{5}
20 км 9/9 300 м
[Sc]
+10.9 +8.9 87 +10 +10 холодно 1005.8 991.0 +9.4 1
06 23.06 ЮЗ 5-7
{7}
20 км 9/9 300 м
[Sc Ac trans]
+14.5 +8.1 65 +13 +14 прохладно 1005.5 990.9
09 23.06 З 5-8
{8}
20 км 8/8 300 м
[Cu med, cong]
+15.3 +7.4 59 +14 +16 холодно 1005.3 990.7
12 23.06 З 7-11
{12}
20 км 8/8 300 м
[Sc diur, vesp]
+15.7 +7.0 56 +14 +15 холодно 1004.6 990.0
15 23.06 СЗ 3-4
{12}
20 км слабый ливневой дождь 9/8 300 м
[Cb calv Ci]
+14.0 +8.2 68 +13 +13 холодно 1004.8 990.2 +17.9 0.4
18 23.06 Ю 2-2
{6}
20 км {ливн. осадки, дождь} ясно +11.0 +9.8 92 +10 +10 очень
холодно
1005.7 990.9
21 23.06 штиль 0
{3}
4000 м туман поземный 1/0
[Ac cuf]
+6.4 +5.7 95 +5 +5 очень
холодно
1005.9 990.9
00 24.06 СВ 1-2
{2}
4000 м туман поземный ясно +3.7 +3.2 97 +2 +2 очень
холодно
1006.0 990.8
03 24.06 Ю 1-2
{2}
20 км ясно +9.0 +8.4 96 +8 +11 холодно 1006.0 991.1 +3.1 0.5
06 24.06 З 1-2
{3}
20 км 3/1 300 м
[Sc Ac lent]
+15.7 +9.5 67 +16 +26 по сезону 1005.2 990.7
09 24.06 З 2-5
{5}
20 км 10/10 300 м
[Sc]
+18.9 +7.0 46 +20 +20 тепло 1004.4 990.0
12 24.06 ЮВ 3-4
{6}
20 км 8/8 300 м
[Cu med, cong Ac trans Ci]
+18.4 +7.1 48 +19 +21 по сезону 1004.2 989.8
15 24.06 З 1-3
{4}
20 км 8/8 300 м
[Sc]
+18.0 +8.5 54 +19 +20 по сезону 1004.5 990.1 +18.9
18 24.06 С 1-3
{7}
20 км ясно +14.5 +7.4 62 +15 +15 прохладно 1005.7 991.1
21 24.06 штиль 0
{2}
4000 м ясно +7.0 +6.4 96 +6 +6 очень
холодно
1006.8 991.8
00 25.06 штиль 0
{1}
1000 м дымка ясно +4.1 +3.6 97 +3 +3 очень
холодно
1007.8 992.6
03 25.06 штиль 0
{1}
20 км 9/0
[Ac und]
+10.2 +9.5 95 +9 +10 холодно 1008.1 993.2 +4.1
06 25.06 СЗ 2-4
{4}
20 км 6/0
[Ci fib]
+16.5 +7.0 53 +17 +26 по сезону 1007.7 993.2
09 25.06 З 3-5
{6}
20 км 8/6 600 м
[Cu med, cong Ci fib]
+18.7 +8.5 51 +19 +24 по сезону 1007.8 993.4
12 25.06 З 3-6
{9}
20 км 9/5 600 м
[Cu med, cong Ac trans Ci fib]
+20.3 +8.0 45 +22 +24 комфорт 1007.4 993.0
15 25.06 З 2-3
{7}
20 км 10/3 600 м
[Sc diur, vesp As op]
+18.9 +9.3 54 +20 +20 тепло 1007.8 993.4 +20.4
18 25.06 ЮВ 1-2
{3}
20 км в посл. час дождь 10/0
[As op]
+16.0 +11.0 72 +17 +17 по сезону 1008.2 993.7
21 25.06 Ю 1-2
{4}
4000 м 3/0
[Ci fib]
+13.5 +10.3 81 +14 +14 по сезону 1008.3 993.5
00 26.06 В 1-2
{3}
4000 м 5/0
[Ci fib]
+9.9 +8.9 93 +9 +9 прохладно 1008.6 993.7
03 26.06 Ю 2-3
{4}
20 км 8/0
[Ac cast Ci]
+14.4 +11.8 84 +14 +15 по сезону 1008.2 993.5 +8.9
06 26.06 Ю 5-6
{7}
20 км 3/3 300 м
[Sc]
+20.1 +14.9 72 +22 +26 комфорт 1007.4 993.0
09 26.06 ЮЗ 9-10
{11}
20 км 6/0
[Ac As]
+22.9 +11.4 48 +25 +26 комфорт 1007.1 992.8
12 26.06 ЮЗ 7-9
{10}
20 км 5/0
[Ac As]
+24.7 +10.7 41 +26 +28 жарко 1006.7 992.5
15 26.06 ЮЗ 4-8
{10}
20 км 8/0
[Ac As Ci fib]
+24.5 +12.7 48 +26 +27 жарко 1006.3 992.2 +24.7
18 26.06 ЮВ 2-3
{9}
20 км 10/0
[As op]
+20.4 +12.8 62 +23 +23 комфорт 1005.8 991.5
21 26.06 Ю 1-3
{5}
4000 м слабый дождь {ливн. осадки} 10/0
[As op]
+17.3 +15.4 89 +18 +18 тепло 1005.5 991.1
00 27.06 Ю 4-6
{6}
4000 м {дождь} 10/0
[Ac und]
+17.3 +15.9 91 +17 +17 тепло 1003.9 989.5

 

Местоположение метеостанции Арзамас (Нижегородская область, Россия): широта 55.37 долгота 43.78 высота над уровнем моря 124 м.

В архиве по умолчанию представлена погода в Арзамасе за последнюю неделю. Архивные данные за месяц целиком и за предыдущие месяцы, начиная с января 2011 года, Вы можете получить, выбрав интересующий диапазон дат из раскрывающегося списка и нажав кнопку "Ввод!".

Внимание! Время в таблицах - всемирное. Для получения местного времени необходимо прибавить поправку, которая в Арзамасе равна 3 ч.

Смотрите также архив погоды в соседних городах и на ближайших метеорологических станциях:

Погода в Дальнем Константиново (Нижегородская область, Россия) (51 км)
Погода в Лукоянове (Нижегородская область, Россия) (59 км)
Погода в Павлово (Нижегородская область, Россия) (80 км)
Погода в Темникове (Мордовия, Россия) (89 км)
Погода в Нижнем Новгороде аэропорт (Нижегородская область, Россия) (95 км)
Погода в Нижнем Новгороде (Нижегородская область, Россия) (101 км)
Погода в Краснослободске (Мордовия, Россия) (105 км)
Погода в Выксе (Нижегородская область, Россия) (105 км)
Погода в Большом Болдино (Нижегородская область, Россия) (105 км)
Погода в Лысково (Нижегородская область, Россия) (106 км)

Пояснения к столбцам:

Ветер - указаны скорость ветра в м/с - средняя за 10 мин, порывы в срок и между сроками (в фигурных скобках) и направление, откуда дует ветер: С - северный, СВ - северо-восточный, В - восточный, ЮВ - юго-восточный, Ю - южный, ЮЗ - юго-западный, З - западный, СЗ - северо-западный.
Видимость - горизонтальная дальность видимости в метрах или километрах. При видимости от 1 до 10 км при отсутствии осадков обычно наблюдается дымка, при ухудшении видимости до 1 км и менее - туман. В сухую погоду видимость может ухудшаться дымом, пылью или мглою.
Явления - указаны атмосферные явления, наблюдавшиеся в срок или в последний час перед сроком; фигурными скобками обозначены явления, наблюдавшиеся между сроками (за 1-3 часа до срока); квадратными скобками обозначены град или гололедные отложения с указанием их диаметра в мм.
Облачность - указаны через наклонную черту общая и нижняя облачность в баллах и высота нижней границы облаков в метрах; квадратными скобками обозначены формы облаков: Ci - перистые, Cs - перисто-слоистые, Cc - перисто-кучевые, Ac - высококучевые, As - высокослоистые, Sc - слоисто-кучевые, Ns - слоисто-дождевые, Cu - кучевые, Cb - кучево-дождевые. Подробнее классификацию облаков см. в Атласе облаков (PDF).
T - Температура воздуха - температура, измеренная на высоте 2 м над землей.
Td - Температура точки росы - температура, при понижении до которой содержащийся в воздухе водяной пар достигнет насыщения.
f - Относительная влажность воздуха - влажноcть воздуха, измеренная на высоте 2 м над землей.
Te - Эффективная температура - температура, которую ощущает одетый по сезону человек в тени. Характеристика душности погоды. При расчете учитывается влияние влажности воздуха и скорости ветра на теплоощущения человека.
Tes - Эффективная температура на солнце - температура, которую ощущает человек, с поправкой на солнечный нагрев. Характеристика знойности погоды. Зависит от высоты солнца над горизонтом, облачности и скорости ветра. Ночью, в пасмурную погоду, а также при ветре 12 м/с и более поправка равна нулю.
P - Атмосферное давление - приведенное к уровню моря атмосферное давление.
Po - Атмосферное давление - измеренное на уровне метеостанции атмосферное давление.
Tmin - Минимальная температура - минимум температуры воздуха на высоте 2 м над землей.
Tmax - Максимальная температура - максимум температуры воздуха на высоте 2 м над землей.
R - Количество осадков - Количество выпавших осадков за период времени, мм. При наведении курсора мыши на число - период времени, за который выпало указанное количество осадков.
R24 - Количество осадков - Количество выпавших осадков за 24 часа, мм.
S - Снежный покров - Высота снежного покрова, см. При наведении курсора мыши на число - состояние снежного покрова и степень покрытия местности в баллах.